Starlink 30109

operational
NORAD ID: 56298 Int'l Des: 2023-056 Owner: SPXS Country: US Constellation: starlink
LEOCIRCULAR

Über Starlink 30109

Beschreibung wird geladen...

Live-Position

3D-Globus wird geladen...

Nächste Überflüge

Höhenverlauf

Altitude vs Time

uPlot chart will show altitude changes over time

Zweizeiliger Elementsatz

1 56298U 23056N 25351.27202791 .00000000 00000-0 15103-4 0 9996
2 56298 43.0040 298.2566 0001088 278.3724 81.6995 15.02536805147680
Epoch: 17. Dez. 2025 • Age: 9 hours

Aktueller Status

Höhe 570.6 km
Geschwindigkeit 7.58 km/s
Subsatellitenpunkt -40.39°S, 92.27°W
Startdatum 19. Apr. 2023
Alter 2.6 years
Typ internet

Technische Details

Klassifizierung Payload
Masse 730.00 kg
Trockenmasse 700.00 kg
Gesamtmasse 730.00 kg
Länge 0.30 m
Durchmesser 4.10 m
Spannweite 29.00 m
Form Box + pan
Hersteller SPXS
Bus-Typ Starlink V2M
Phasenstatus In Orbit
Besitzer/Staat SPXS/US

Große Konstellationen

Loading constellations...